Location: Kazanice
(53.5528°N, 19.7258°E)
Time: 10:50:31
(UTC+01:00)

ISS - Pass Details

Date: 01 February 2019
Orbit: 403 x 411 km, 51.6° (Epoch: 18 February)

Event Time Altitude Azimuth Distance (km) Brightness Sun altitude
Rises 17:19:55 0° 257° (WSW) 2,332 2.5 -8.6°
Reaches altitude 10° 17:22:01 10° 254° (WSW) 1,473 0.7 -8.9°
Maximum altitude 17:25:17 60° 174° (S) 474 -3.5 -9.4°
Enters shadow 17:28:07 13° 95° (E) 1,306 -1.8 -9.8°
